Buffalo, NY

1:13 AM EST on December 15, 2019 (GMT -0500)
Buffalo Niagara International

Weather History for KBUF - July, 2019

Change the Weather History Date:

Wednesday, July 24, 2019

  Actual Average Record
Temperature  
Mean Temperature 68 °F 71 °F  
Max Temperature 80 °F 80 °F 91 °F (1945)
Min Temperature 57 °F 63 °F 49 °F (1962)
Degree Days  
Heating Degree Days 0 0  
Month to date heating degree days 2  
Since 1 June heating degree days 66  
Since 1 July heating degree days 2  
Cooling Degree Days 4 7  
Month to date cooling degree days 157  
Year to date cooling degree days 286  
Since 1 June cooling degree days 260  
Growing Degree Days 18 (Base 50)    
Moisture  
Dew Point 53 °F    
Average Humidity 56    
Maximum Humidity 87    
Minimum Humidity 21    
Precipitation  
Precipitation 0.00 in 0.10 in 3.08 in (1910)
Month to date precipitation 2.43  
Year to date precipitation 21.10  
Snow  
Snow 0.00 in 0.00 in 0.00 in ()
Month to date snowfall 0.0  
Since 1 June snowfall 0.0  
Since 1 July snowfall 0.0  
Snow Depth -    
Sea Level Pressure  
Sea Level Pressure 30.03 in    
Wind  
Wind Speed 3 mph (WNW)    
Max Wind Speed 13 mph    
Max Gust Speed 18 mph    
Visibility 10 miles    
Events      
T = Trace of Precipitation, MM = Missing Value Source: NWS Daily Summary

Daily Weather History Graph

Daily Weather History Graph

Search for Another Location

Airport or City:

Astronomy

Jul. 24, 2019 Rise Set
Actual Time 5:57 AM EDT 8:44 PM EDT
Civil Twilight 5:24 AM EDT 9:17 PM EDT
Nautical Twilight 4:42 AM EDT 9:59 PM EDT
Astronomical Twilight 3:54 AM EDT 10:47 PM EDT
Moon 12:22 AM EDT (7/24) 1:17 PM EDT (7/24)
Length of Visible Light 15h 53m
Length of Day
14h 47m
Waning Gibbous, 54% of the Moon is Illuminated
Jul 24
Waning Gibbous
Jul 24
Last Quarter
Jul 31
New
Aug 7
First Quarter
Aug 15
Full

Hourly Weather History & Observations

Time (EDT) Temp. Dew Point Humidity Pressure Visibility Wind Dir Wind Speed Gust Speed Precip Events Conditions
12:54 AM 64.0 °F 54.0 °F 70% 29.97 in 10.0 mi Calm Calm - N/A   Partly Cloudy
1:54 AM 64.0 °F 54.0 °F 70% 29.97 in 10.0 mi Calm Calm - N/A   Clear
2:54 AM 61.0 °F 54.0 °F 78% 29.97 in 10.0 mi Calm Calm - N/A   Clear
3:54 AM 60.1 °F 53.1 °F 78% 29.97 in 10.0 mi Calm Calm - N/A   Clear
4:54 AM 57.9 °F 53.1 °F 84% 29.99 in 10.0 mi South 3.5 mph - N/A   Clear
5:54 AM 59.0 °F 53.1 °F 81% 30.00 in 10.0 mi Calm Calm - N/A   Clear
6:54 AM 57.9 °F 54.0 °F 87% 30.02 in 10.0 mi Calm Calm - N/A   Partly Cloudy
7:54 AM 61.0 °F 55.0 °F 81% 30.03 in 10.0 mi ESE 3.5 mph - N/A   Partly Cloudy
8:54 AM 66.0 °F 55.0 °F 68% 30.05 in 10.0 mi Calm Calm - N/A   Partly Cloudy
9:54 AM 71.1 °F 54.0 °F 55% 30.05 in 10.0 mi Calm Calm - N/A   Partly Cloudy
10:54 AM 73.9 °F 54.0 °F 50% 30.05 in 10.0 mi Calm Calm - N/A   Partly Cloudy
11:54 AM 77.0 °F 51.1 °F 40% 30.05 in 10.0 mi North 5.8 mph - N/A   Partly Cloudy
12:54 PM 77.0 °F 50.0 °F 39% 30.04 in 10.0 mi NW 9.2 mph - N/A   Scattered Clouds
12:57 PM 77.0 °F 48.9 °F 37% 30.05 in 10.0 mi WNW 9.2 mph - N/A   Scattered Clouds
1:54 PM 75.9 °F 52.0 °F 43% 30.04 in 10.0 mi NW 10.4 mph - N/A   Mostly Cloudy
2:54 PM 80.1 °F 48.9 °F 34% 30.04 in 10.0 mi NNW 12.7 mph - N/A   Scattered Clouds
3:54 PM 79.0 °F 46.0 °F 31% 30.03 in 10.0 mi WNW 10.4 mph - N/A   Partly Cloudy
4:54 PM 80.1 °F 46.9 °F 31% 30.03 in 10.0 mi WNW 6.9 mph 18.4 mph N/A   Partly Cloudy
5:54 PM 79.0 °F 46.0 °F 31% 30.03 in 10.0 mi NW 8.1 mph - N/A   Partly Cloudy
6:54 PM 78.1 °F 48.0 °F 35% 30.03 in 10.0 mi NW 8.1 mph - N/A   Partly Cloudy
7:54 PM 75.9 °F 50.0 °F 40% 30.05 in 10.0 mi NNW 5.8 mph - N/A   Partly Cloudy
8:54 PM 73.0 °F 55.0 °F 53% 30.06 in 10.0 mi WSW 6.9 mph - N/A   Scattered Clouds
9:54 PM 71.1 °F 57.0 °F 61% 30.08 in 10.0 mi West 8.1 mph - N/A   Scattered Clouds
10:54 PM 69.1 °F 57.9 °F 68% 30.08 in 10.0 mi West 5.8 mph - N/A   Partly Cloudy
11:54 PM 68.0 °F 59.0 °F 73% 30.09 in 10.0 mi SSW 4.6 mph - N/A   Partly Cloudy